TimeCDT,TemperatureF,Dew PointF,Humidity,Sea Level PressureIn,VisibilityMPH,Wind Direction,Wind SpeedMPH,Gust SpeedMPH,PrecipitationIn,Events,Conditions,WindDirDegrees,DateUTC
12:53 AM,61.0,54.0,78,30.13,10.0,Calm,Calm,-,N/A,,Clear,0,2013-08-18 05:53:00
1:53 AM,59.0,54.0,83,30.13,10.0,Calm,Calm,-,N/A,,Clear,0,2013-08-18 06:53:00
2:53 AM,59.0,54.0,83,30.13,10.0,East,3.5,-,N/A,,Clear,100,2013-08-18 07:53:00
3:53 AM,60.1,54.0,80,30.13,10.0,Calm,Calm,-,N/A,,Clear,0,2013-08-18 08:53:00
4:53 AM,60.1,54.0,80,30.13,10.0,Calm,Calm,-,N/A,,Clear,0,2013-08-18 09:53:00
5:53 AM,57.9,54.0,87,30.13,10.0,East,3.5,-,N/A,,Clear,90,2013-08-18 10:53:00
6:53 AM,57.9,54.0,87,30.14,10.0,East,3.5,-,N/A,,Scattered Clouds,80,2013-08-18 11:53:00
7:53 AM,62.1,57.0,84,30.16,10.0,Calm,Calm,-,N/A,,Clear,0,2013-08-18 12:53:00
8:53 AM,68.0,59.0,73,30.17,10.0,ESE,4.6,-,N/A,,Clear,120,2013-08-18 13:53:00
9:53 AM,73.0,60.1,64,30.17,10.0,SSE,5.8,-,N/A,,Clear,160,2013-08-18 14:53:00
10:53 AM,75.0,61.0,62,30.17,10.0,SSE,5.8,-,N/A,,Clear,160,2013-08-18 15:53:00
11:53 AM,77.0,60.1,56,30.16,10.0,SE,4.6,-,N/A,,Partly Cloudy,140,2013-08-18 16:53:00
12:53 PM,80.1,59.0,48,30.14,10.0,South,4.6,-,N/A,,Partly Cloudy,170,2013-08-18 17:53:00
1:53 PM,80.1,57.9,47,30.12,10.0,South,9.2,-,N/A,,Scattered Clouds,170,2013-08-18 18:53:00
2:53 PM,81.0,59.0,47,30.10,10.0,SSE,8.1,-,N/A,,Scattered Clouds,160,2013-08-18 19:53:00
3:53 PM,82.0,60.1,47,30.09,10.0,South,9.2,-,N/A,,Mostly Cloudy,170,2013-08-18 20:53:00
4:53 PM,79.0,59.0,50,30.08,10.0,SSE,6.9,-,N/A,,Scattered Clouds,160,2013-08-18 21:53:00
5:53 PM,80.1,60.1,50,30.08,10.0,South,5.8,-,N/A,,Partly Cloudy,180,2013-08-18 22:53:00
6:53 PM,78.1,61.0,56,30.07,10.0,South,4.6,-,N/A,,Clear,170,2013-08-18 23:53:00
7:53 PM,75.0,61.0,62,30.07,10.0,SE,4.6,-,N/A,,Clear,130,2013-08-19 00:53:00
8:53 PM,73.0,60.1,64,30.08,10.0,ESE,5.8,-,N/A,,Clear,120,2013-08-19 01:53:00
9:53 PM,70.0,60.1,71,30.09,10.0,ESE,5.8,-,N/A,,Clear,120,2013-08-19 02:53:00
10:53 PM,66.9,60.1,79,30.10,10.0,Calm,Calm,-,N/A,,Clear,0,2013-08-19 03:53:00
11:53 PM,66.0,60.1,81,30.11,10.0,SE,4.6,-,N/A,,Clear,140,2013-08-19 04:53:00